Year,Month,Day,Hour,Minute,Value (Times are PST for temperature in C)
2006,07,19,00,00,14.10
2006,07,19,00,01,14.10
2006,07,19,00,02,14.00
2006,07,19,00,03,14.00
2006,07,19,00,04,13.90
2006,07,19,00,05,13.90
2006,07,19,00,06,13.90
2006,07,19,00,07,13.80
2006,07,19,00,08,13.80
2006,07,19,00,09,13.80
2006,07,19,00,10,13.70
2006,07,19,00,11,13.70
2006,07,19,00,12,13.70
2006,07,19,00,13,13.70
2006,07,19,00,14,13.70
2006,07,19,00,15,13.70
2006,07,19,00,16,13.70
2006,07,19,00,17,13.70
2006,07,19,00,18,13.60
2006,07,19,00,19,13.60
2006,07,19,00,20,13.60
2006,07,19,00,21,13.60
2006,07,19,00,22,13.60
2006,07,19,00,23,13.60
2006,07,19,00,24,13.60
2006,07,19,00,25,13.60
2006,07,19,00,26,13.60
2006,07,19,00,27,13.60
2006,07,19,00,28,13.60
2006,07,19,00,29,13.50
2006,07,19,00,30,13.50
2006,07,19,00,31,13.50
2006,07,19,00,32,13.50
2006,07,19,00,33,13.50
2006,07,19,00,34,13.40
2006,07,19,00,35,13.40
2006,07,19,00,36,13.40
2006,07,19,00,37,13.30
2006,07,19,00,38,13.30
2006,07,19,00,39,13.30
2006,07,19,00,40,13.30
2006,07,19,00,41,13.30
2006,07,19,00,42,13.30
2006,07,19,00,43,13.30
2006,07,19,00,44,13.30
2006,07,19,00,45,13.30
2006,07,19,00,46,13.30
2006,07,19,00,47,13.30
2006,07,19,00,48,13.30
2006,07,19,00,49,13.30
2006,07,19,00,50,13.30
2006,07,19,00,51,13.30
2006,07,19,00,52,13.30
2006,07,19,00,53,13.30
2006,07,19,00,54,13.30
2006,07,19,00,55,13.30
2006,07,19,00,56,13.30
2006,07,19,00,57,13.30
2006,07,19,00,58,13.20
2006,07,19,00,59,13.20
2006,07,19,01,00,13.10
2006,07,19,01,01,13.10
2006,07,19,01,02,13.10
2006,07,19,01,03,13.00
2006,07,19,01,04,13.00
2006,07,19,01,05,12.90
2006,07,19,01,06,12.90
2006,07,19,01,07,12.90
2006,07,19,01,08,12.80
2006,07,19,01,09,12.80
2006,07,19,01,10,12.80
2006,07,19,01,11,12.80
2006,07,19,01,12,12.80
2006,07,19,01,13,12.70
2006,07,19,01,14,12.70
2006,07,19,01,15,12.70
2006,07,19,01,16,12.70
2006,07,19,01,17,12.70
2006,07,19,01,18,12.70
2006,07,19,01,19,12.80
2006,07,19,01,20,12.80
2006,07,19,01,21,12.80
2006,07,19,01,22,12.80
2006,07,19,01,23,12.80
2006,07,19,01,24,12.80
2006,07,19,01,25,12.80
2006,07,19,01,26,12.80
2006,07,19,01,27,12.90
2006,07,19,01,28,12.90
2006,07,19,01,29,12.90
2006,07,19,01,30,12.90
2006,07,19,01,31,12.90
2006,07,19,01,32,12.90
2006,07,19,01,33,12.90
2006,07,19,01,34,12.90
2006,07,19,01,35,12.90
2006,07,19,01,36,12.90
2006,07,19,01,37,12.90
2006,07,19,01,38,12.90
2006,07,19,01,39,12.90
2006,07,19,01,40,12.80
2006,07,19,01,41,12.80
2006,07,19,01,42,12.80
2006,07,19,01,43,12.80
2006,07,19,01,44,12.80
2006,07,19,01,45,12.80
2006,07,19,01,46,12.80
2006,07,19,01,47,12.70
2006,07,19,01,48,12.70
2006,07,19,01,49,12.60
2006,07,19,01,50,12.60
2006,07,19,01,51,12.60
2006,07,19,01,52,12.60
2006,07,19,01,53,12.60
2006,07,19,01,54,12.60
2006,07,19,01,55,12.60
2006,07,19,01,56,12.60
2006,07,19,01,57,12.60
2006,07,19,01,58,12.50
2006,07,19,01,59,12.50
2006,07,19,02,00,12.50
2006,07,19,02,01,12.50
2006,07,19,02,02,12.50
2006,07,19,02,03,12.50
2006,07,19,02,04,12.40
2006,07,19,02,05,12.40
2006,07,19,02,06,12.40
2006,07,19,02,07,12.40
2006,07,19,02,08,12.40
2006,07,19,02,09,12.30
2006,07,19,02,10,12.30
2006,07,19,02,11,12.30
2006,07,19,02,12,12.30
2006,07,19,02,13,12.30
2006,07,19,02,14,12.30
2006,07,19,02,15,12.30
2006,07,19,02,16,12.30
2006,07,19,02,17,12.20
2006,07,19,02,18,12.20
2006,07,19,02,19,12.20
2006,07,19,02,20,12.20
2006,07,19,02,21,12.20
2006,07,19,02,22,12.30
2006,07,19,02,23,12.30
2006,07,19,02,24,12.30
2006,07,19,02,25,12.30
2006,07,19,02,26,12.30
2006,07,19,02,27,12.30
2006,07,19,02,28,12.30
2006,07,19,02,29,12.30
2006,07,19,02,30,12.30
2006,07,19,02,31,12.30
2006,07,19,02,32,12.20
2006,07,19,02,33,12.20
2006,07,19,02,34,12.20
2006,07,19,02,35,12.20
2006,07,19,02,36,12.20
2006,07,19,02,37,12.30
2006,07,19,02,38,12.30
2006,07,19,02,39,12.30
2006,07,19,02,40,12.30
2006,07,19,02,41,12.30
2006,07,19,02,42,12.30
2006,07,19,02,43,12.30
2006,07,19,02,44,12.20
2006,07,19,02,45,12.20
2006,07,19,02,46,12.20
2006,07,19,02,47,12.20
2006,07,19,02,48,12.20
2006,07,19,02,49,12.20
2006,07,19,02,50,12.10
2006,07,19,02,51,12.20
2006,07,19,02,52,12.20
2006,07,19,02,53,12.20
2006,07,19,02,54,12.30
2006,07,19,02,55,12.30
2006,07,19,02,56,12.30
2006,07,19,02,57,12.30
2006,07,19,02,58,12.30
2006,07,19,02,59,12.30
2006,07,19,03,00,12.30
2006,07,19,03,01,12.30
2006,07,19,03,02,12.30
2006,07,19,03,03,12.30
2006,07,19,03,04,12.30
2006,07,19,03,05,12.30
2006,07,19,03,06,12.30
2006,07,19,03,07,12.30
2006,07,19,03,08,12.30
2006,07,19,03,09,12.30
2006,07,19,03,10,12.30
2006,07,19,03,11,12.30
2006,07,19,03,12,12.30
2006,07,19,03,13,12.20
2006,07,19,03,14,12.20
2006,07,19,03,15,12.20
2006,07,19,03,16,12.20
2006,07,19,03,17,12.10
2006,07,19,03,18,12.10
2006,07,19,03,19,12.10
2006,07,19,03,20,12.10
2006,07,19,03,21,12.00
2006,07,19,03,22,12.00
2006,07,19,03,23,12.00
2006,07,19,03,24,12.00
2006,07,19,03,25,11.90
2006,07,19,03,26,11.90
2006,07,19,03,27,11.90
2006,07,19,03,28,11.90
2006,07,19,03,29,11.90
2006,07,19,03,30,11.80
2006,07,19,03,31,11.80
2006,07,19,03,32,11.80
2006,07,19,03,33,11.80
2006,07,19,03,34,11.80
2006,07,19,03,35,11.80
2006,07,19,03,36,11.80
2006,07,19,03,37,11.80
2006,07,19,03,38,11.80
2006,07,19,03,39,11.80
2006,07,19,03,40,11.80
2006,07,19,03,41,11.80
2006,07,19,03,42,11.80
2006,07,19,03,43,11.80
2006,07,19,03,44,11.80
2006,07,19,03,45,11.80
2006,07,19,03,46,11.80
2006,07,19,03,47,11.80
2006,07,19,03,48,11.80
2006,07,19,03,49,11.80
2006,07,19,03,50,11.70
2006,07,19,03,51,11.70
2006,07,19,03,52,11.70
2006,07,19,03,53,11.60
2006,07,19,03,54,11.60
2006,07,19,03,55,11.60
2006,07,19,03,56,11.60
2006,07,19,03,57,11.60
2006,07,19,03,58,11.60
2006,07,19,03,59,11.60
2006,07,19,04,00,11.60
2006,07,19,04,01,11.60
2006,07,19,04,02,11.60
2006,07,19,04,03,11.60
2006,07,19,04,04,11.70
2006,07,19,04,05,11.70
2006,07,19,04,06,11.70
2006,07,19,04,07,11.70
2006,07,19,04,08,11.60
2006,07,19,04,09,11.60
2006,07,19,04,10,11.60
2006,07,19,04,11,11.60
2006,07,19,04,12,11.60
2006,07,19,04,13,11.60
2006,07,19,04,14,11.60
2006,07,19,04,15,11.60
2006,07,19,04,16,11.60
2006,07,19,04,17,11.60
2006,07,19,04,18,11.60
2006,07,19,04,19,11.60
2006,07,19,04,20,11.60
2006,07,19,04,21,11.60
2006,07,19,04,22,11.60
2006,07,19,04,23,11.60
2006,07,19,04,24,11.60
2006,07,19,04,25,11.50
2006,07,19,04,26,11.40
2006,07,19,04,27,11.40
2006,07,19,04,28,11.40
2006,07,19,04,29,11.40
2006,07,19,04,30,11.40
2006,07,19,04,31,11.40
2006,07,19,04,32,11.40
2006,07,19,04,33,11.40
2006,07,19,04,34,11.40
2006,07,19,04,35,11.30
2006,07,19,04,36,11.30
2006,07,19,04,37,11.30
2006,07,19,04,38,11.30
2006,07,19,04,39,11.30
2006,07,19,04,40,11.30
2006,07,19,04,41,11.30
2006,07,19,04,42,11.30
2006,07,19,04,43,11.30
2006,07,19,04,44,11.30
2006,07,19,04,45,11.30
2006,07,19,04,46,11.30
2006,07,19,04,47,11.30
2006,07,19,04,48,11.30
2006,07,19,04,49,11.30
2006,07,19,04,50,11.30
2006,07,19,04,51,11.30
2006,07,19,04,52,11.30
2006,07,19,04,53,11.30
2006,07,19,04,54,11.20
2006,07,19,04,55,11.20
2006,07,19,04,56,11.20
2006,07,19,04,57,11.20
2006,07,19,04,58,11.20
2006,07,19,04,59,11.20
2006,07,19,05,00,11.20
2006,07,19,05,01,11.20
2006,07,19,05,02,11.10
2006,07,19,05,03,11.10
2006,07,19,05,04,11.10
2006,07,19,05,05,11.10
2006,07,19,05,06,11.10
2006,07,19,05,07,11.10
2006,07,19,05,08,11.10
2006,07,19,05,09,11.10
2006,07,19,05,10,11.10
2006,07,19,05,11,11.20
2006,07,19,05,12,11.20
2006,07,19,05,13,11.20
2006,07,19,05,14,11.20
2006,07,19,05,15,11.20
2006,07,19,05,16,11.20
2006,07,19,05,17,11.30
2006,07,19,05,18,11.30
2006,07,19,05,19,11.30
2006,07,19,05,20,11.40
2006,07,19,05,21,11.40
2006,07,19,05,22,11.40
2006,07,19,05,23,11.40
2006,07,19,05,24,11.40
2006,07,19,05,25,11.40
2006,07,19,05,26,11.40
2006,07,19,05,27,11.40
2006,07,19,05,28,11.40
2006,07,19,05,29,11.40
2006,07,19,05,30,11.40
2006,07,19,05,31,11.40
2006,07,19,05,32,11.30
2006,07,19,05,33,11.30
2006,07,19,05,34,11.20
2006,07,19,05,35,11.20
2006,07,19,05,36,11.10
2006,07,19,05,37,11.10
2006,07,19,05,38,11.10
2006,07,19,05,39,11.20
2006,07,19,05,40,11.20
2006,07,19,05,41,11.20
2006,07,19,05,42,11.20
2006,07,19,05,43,11.20
2006,07,19,05,44,11.20
2006,07,19,05,45,11.20
2006,07,19,05,46,11.20
2006,07,19,05,47,11.20
2006,07,19,05,48,11.20
2006,07,19,05,49,11.20
2006,07,19,05,50,11.20
2006,07,19,05,51,11.20
2006,07,19,05,52,11.20
2006,07,19,05,53,11.30
2006,07,19,05,54,11.30
2006,07,19,05,55,11.30
2006,07,19,05,56,11.30
2006,07,19,05,57,11.30
2006,07,19,05,58,11.30
2006,07,19,05,59,11.40
2006,07,19,06,00,11.40
2006,07,19,06,01,11.40
2006,07,19,06,02,11.40
2006,07,19,06,03,11.40
2006,07,19,06,04,11.40
2006,07,19,06,05,11.40
2006,07,19,06,06,11.40
2006,07,19,06,07,11.40
2006,07,19,06,08,11.30
2006,07,19,06,09,11.30
2006,07,19,06,10,11.30
2006,07,19,06,11,11.30
2006,07,19,06,12,11.20
2006,07,19,06,13,11.20
2006,07,19,06,14,11.20
2006,07,19,06,15,11.20
2006,07,19,06,16,11.20
2006,07,19,06,17,11.20
2006,07,19,06,18,11.20
2006,07,19,06,19,11.20
2006,07,19,06,20,11.30
2006,07,19,06,21,11.30
2006,07,19,06,22,11.30
2006,07,19,06,23,11.30
2006,07,19,06,24,11.30
2006,07,19,06,25,11.30
2006,07,19,06,26,11.40
2006,07,19,06,27,11.40
2006,07,19,06,28,11.40
2006,07,19,06,29,11.40
2006,07,19,06,30,11.50
2006,07,19,06,31,11.60
2006,07,19,06,32,11.60
2006,07,19,06,33,11.60
2006,07,19,06,34,11.60
2006,07,19,06,35,11.70
2006,07,19,06,36,11.70
2006,07,19,06,37,11.80
2006,07,19,06,38,11.80
2006,07,19,06,39,11.90
2006,07,19,06,40,12.00
2006,07,19,06,41,12.10
2006,07,19,06,42,12.10
2006,07,19,06,43,12.20
2006,07,19,06,44,12.20
2006,07,19,06,45,12.30
2006,07,19,06,46,12.30
2006,07,19,06,47,12.30
2006,07,19,06,48,12.30
2006,07,19,06,49,12.30
2006,07,19,06,50,12.30
2006,07,19,06,51,12.30
2006,07,19,06,52,12.30
2006,07,19,06,53,12.30
2006,07,19,06,54,12.40
2006,07,19,06,55,12.40
2006,07,19,06,56,12.40
2006,07,19,06,57,12.40
2006,07,19,06,58,12.40
2006,07,19,06,59,12.40
2006,07,19,07,00,12.50
2006,07,19,07,01,12.50
2006,07,19,07,02,12.50
2006,07,19,07,03,12.60
2006,07,19,07,04,12.70
2006,07,19,07,05,12.70
2006,07,19,07,06,12.70
2006,07,19,07,07,12.80
2006,07,19,07,08,12.80
2006,07,19,07,09,12.80
2006,07,19,07,10,12.80
2006,07,19,07,11,12.80
2006,07,19,07,12,12.80
2006,07,19,07,13,12.80
2006,07,19,07,14,12.70
2006,07,19,07,15,12.70
2006,07,19,07,16,12.70
2006,07,19,07,17,12.70
2006,07,19,07,18,12.70
2006,07,19,07,19,12.70
2006,07,19,07,20,12.70
2006,07,19,07,21,12.70
2006,07,19,07,22,12.70
2006,07,19,07,23,12.70
2006,07,19,07,24,12.80
2006,07,19,07,25,12.80
2006,07,19,07,26,12.80
2006,07,19,07,27,12.80
2006,07,19,07,28,12.80
2006,07,19,07,29,12.80
2006,07,19,07,30,12.80
2006,07,19,07,31,12.80
2006,07,19,07,32,12.80
2006,07,19,07,33,12.90
2006,07,19,07,34,13.00
2006,07,19,07,35,13.10
2006,07,19,07,36,13.20
2006,07,19,07,37,13.20
2006,07,19,07,38,13.30
2006,07,19,07,39,13.40
2006,07,19,07,40,13.50
2006,07,19,07,41,13.50
2006,07,19,07,42,13.60
2006,07,19,07,43,13.70
2006,07,19,07,44,13.70
2006,07,19,07,45,13.70
2006,07,19,07,46,13.70
2006,07,19,07,47,13.70
2006,07,19,07,48,13.70
2006,07,19,07,49,13.70
2006,07,19,07,50,13.70
2006,07,19,07,51,13.70
2006,07,19,07,52,13.70
2006,07,19,07,53,13.70
2006,07,19,07,54,13.70
2006,07,19,07,55,13.70
2006,07,19,07,56,13.70
2006,07,19,07,57,13.80
2006,07,19,07,58,13.90
2006,07,19,07,59,14.00
2006,07,19,08,00,14.10
2006,07,19,08,01,14.30
2006,07,19,08,02,14.40
2006,07,19,08,03,14.50
2006,07,19,08,04,14.50
2006,07,19,08,05,14.60
2006,07,19,08,06,14.60
2006,07,19,08,07,14.70
2006,07,19,08,08,14.80
2006,07,19,08,09,14.80
2006,07,19,08,10,14.80
2006,07,19,08,11,14.70
2006,07,19,08,12,14.80
2006,07,19,08,13,14.80
2006,07,19,08,14,14.80
2006,07,19,08,15,14.90
2006,07,19,08,16,15.00
2006,07,19,08,17,15.00
2006,07,19,08,18,15.00
2006,07,19,08,19,15.00
2006,07,19,08,20,15.00
2006,07,19,08,21,15.10
2006,07,19,08,22,15.00
2006,07,19,08,23,15.10
2006,07,19,08,24,15.10
2006,07,19,08,25,15.10
2006,07,19,08,26,15.20
2006,07,19,08,27,15.20
2006,07,19,08,28,15.20
2006,07,19,08,29,15.20
2006,07,19,08,30,15.20
2006,07,19,08,31,15.20
2006,07,19,08,32,15.30
2006,07,19,08,33,15.30
2006,07,19,08,34,15.30
2006,07,19,08,35,15.30
2006,07,19,08,36,15.30
2006,07,19,08,37,15.30
2006,07,19,08,38,15.30
2006,07,19,08,39,15.30
2006,07,19,08,40,15.30
2006,07,19,08,41,15.30
2006,07,19,08,42,15.30
2006,07,19,08,43,15.30
2006,07,19,08,44,15.30
2006,07,19,08,45,15.30
2006,07,19,08,46,15.30
2006,07,19,08,47,15.30
2006,07,19,08,48,15.30
2006,07,19,08,49,15.30
2006,07,19,08,50,15.30
2006,07,19,08,51,15.30
2006,07,19,08,52,15.30
2006,07,19,08,53,15.40
2006,07,19,08,54,15.30
2006,07,19,08,55,15.30
2006,07,19,08,56,15.30
2006,07,19,08,57,15.40
2006,07,19,08,58,15.40
2006,07,19,08,59,15.40
2006,07,19,09,00,15.50
2006,07,19,09,01,15.50
2006,07,19,09,02,15.50
2006,07,19,09,03,15.40
2006,07,19,09,04,15.30
2006,07,19,09,05,15.30
2006,07,19,09,06,15.30
2006,07,19,09,07,15.30
2006,07,19,09,08,15.30
2006,07,19,09,09,15.30
2006,07,19,09,10,15.30
2006,07,19,09,11,15.30
2006,07,19,09,12,15.30
2006,07,19,09,13,15.30
2006,07,19,09,14,15.30
2006,07,19,09,15,15.30
2006,07,19,09,16,15.30
2006,07,19,09,17,15.30
2006,07,19,09,18,15.20
2006,07,19,09,19,15.20
2006,07,19,09,20,15.20
2006,07,19,09,21,15.10
2006,07,19,09,22,15.10
2006,07,19,09,23,15.00
2006,07,19,09,24,14.90
2006,07,19,09,25,14.90
2006,07,19,09,26,14.80
2006,07,19,09,27,14.80
2006,07,19,09,28,14.80
2006,07,19,09,29,14.80
2006,07,19,09,30,14.80
2006,07,19,09,31,14.70
2006,07,19,09,32,14.60
2006,07,19,09,33,14.60
2006,07,19,09,34,14.50
2006,07,19,09,35,14.50
2006,07,19,09,36,14.40
2006,07,19,09,37,14.40
2006,07,19,09,38,14.40
2006,07,19,09,39,14.20
2006,07,19,09,40,14.20
2006,07,19,09,41,14.20
2006,07,19,09,42,14.10
2006,07,19,09,43,14.10
2006,07,19,09,44,14.00
2006,07,19,09,45,14.00
2006,07,19,09,46,14.00
2006,07,19,09,47,14.10
2006,07,19,09,48,14.10
2006,07,19,09,49,14.10
2006,07,19,09,50,14.10
2006,07,19,09,51,14.20
2006,07,19,09,52,14.20
2006,07,19,09,53,14.20
2006,07,19,09,54,14.20
2006,07,19,09,55,14.30
2006,07,19,09,56,14.30
2006,07,19,09,57,14.40
2006,07,19,09,58,14.40
2006,07,19,09,59,14.30
2006,07,19,10,00,14.40
2006,07,19,10,01,14.40
2006,07,19,10,02,14.40
2006,07,19,10,03,14.40
2006,07,19,10,04,14.40
2006,07,19,10,05,14.40
2006,07,19,10,06,14.40
2006,07,19,10,07,14.50
2006,07,19,10,08,14.60
2006,07,19,10,09,14.60
2006,07,19,10,10,14.70
2006,07,19,10,11,14.80
2006,07,19,10,12,14.80
2006,07,19,10,13,14.80
2006,07,19,10,14,14.80
2006,07,19,10,15,14.80
2006,07,19,10,16,14.80
2006,07,19,10,17,14.80
2006,07,19,10,18,14.80
2006,07,19,10,19,14.80
2006,07,19,10,20,14.80
2006,07,19,10,21,14.80
2006,07,19,10,22,14.80
2006,07,19,10,23,14.90
2006,07,19,10,24,14.90
2006,07,19,10,25,14.90
2006,07,19,10,26,14.90
2006,07,19,10,27,14.90
2006,07,19,10,28,14.80
2006,07,19,10,29,14.60
2006,07,19,10,30,14.60
2006,07,19,10,31,14.60
2006,07,19,10,32,14.60
2006,07,19,10,33,14.50
2006,07,19,10,34,14.50
2006,07,19,10,35,14.40
2006,07,19,10,36,14.40
2006,07,19,10,37,14.40
2006,07,19,10,38,14.40
2006,07,19,10,39,14.30
2006,07,19,10,40,14.20
2006,07,19,10,41,14.20
2006,07,19,10,42,14.20
2006,07,19,10,43,14.20
2006,07,19,10,44,14.10
2006,07,19,10,45,14.20
2006,07,19,10,46,14.10
2006,07,19,10,47,14.10
2006,07,19,10,48,14.10
2006,07,19,10,49,14.10
2006,07,19,10,50,14.10
2006,07,19,10,51,14.10
2006,07,19,10,52,14.20
2006,07,19,10,53,14.20
2006,07,19,10,54,14.20
2006,07,19,10,55,14.20
2006,07,19,10,56,14.10
2006,07,19,10,57,14.10
2006,07,19,10,58,14.10
2006,07,19,10,59,14.20
2006,07,19,11,00,14.20
2006,07,19,11,01,14.20
2006,07,19,11,02,14.20
2006,07,19,11,03,14.10
2006,07,19,11,04,14.10
2006,07,19,11,05,14.10
2006,07,19,11,06,14.20
2006,07,19,11,07,14.20
2006,07,19,11,08,14.20
2006,07,19,11,09,14.20
2006,07,19,11,10,14.20
2006,07,19,11,11,14.30
2006,07,19,11,12,14.40
2006,07,19,11,13,14.40
2006,07,19,11,14,14.50
2006,07,19,11,15,14.50
2006,07,19,11,16,14.50
2006,07,19,11,17,14.60
2006,07,19,11,18,14.80
2006,07,19,11,19,14.80
2006,07,19,11,20,14.80
2006,07,19,11,21,14.80
2006,07,19,11,22,14.80
2006,07,19,11,23,14.80
2006,07,19,11,24,14.80
2006,07,19,11,25,14.80
2006,07,19,11,26,14.80
2006,07,19,11,27,14.90
2006,07,19,11,28,15.00
2006,07,19,11,29,15.10
2006,07,19,11,30,15.20
2006,07,19,11,31,15.30
2006,07,19,11,32,15.30
2006,07,19,11,33,15.40
2006,07,19,11,34,15.50
2006,07,19,11,35,15.60
2006,07,19,11,36,15.60
2006,07,19,11,37,15.80
2006,07,19,11,38,15.80
2006,07,19,11,39,15.80
2006,07,19,11,40,15.80
2006,07,19,11,41,15.80
2006,07,19,11,42,15.80
2006,07,19,11,43,15.80
2006,07,19,11,44,15.90
2006,07,19,11,45,15.90
2006,07,19,11,46,15.90
2006,07,19,11,47,15.90
2006,07,19,11,48,15.90
2006,07,19,11,49,15.90
2006,07,19,11,50,15.80
2006,07,19,11,51,15.80
2006,07,19,11,52,15.70
2006,07,19,11,53,15.70
2006,07,19,11,54,15.70
2006,07,19,11,55,15.70
2006,07,19,11,56,15.60
2006,07,19,11,57,15.70
2006,07,19,11,58,15.60
2006,07,19,11,59,15.50
2006,07,19,12,00,15.40
2006,07,19,12,01,15.40
2006,07,19,12,02,15.40
2006,07,19,12,03,15.30
2006,07,19,12,04,15.30
2006,07,19,12,05,15.20
2006,07,19,12,06,15.20
2006,07,19,12,07,15.30
2006,07,19,12,08,15.20
2006,07,19,12,09,15.20
2006,07,19,12,10,15.20
2006,07,19,12,11,15.30
2006,07,19,12,12,15.30
2006,07,19,12,13,15.20
2006,07,19,12,14,15.20
2006,07,19,12,15,15.20
2006,07,19,12,16,15.10
2006,07,19,12,17,15.10
2006,07,19,12,18,15.10
2006,07,19,12,19,15.20
2006,07,19,12,20,15.20
2006,07,19,12,21,15.10
2006,07,19,12,22,15.20
2006,07,19,12,23,15.30
2006,07,19,12,24,15.30
2006,07,19,12,25,15.30
2006,07,19,12,26,15.30
2006,07,19,12,27,15.30
2006,07,19,12,28,15.30
2006,07,19,12,29,15.30
2006,07,19,12,30,15.30
2006,07,19,12,31,15.30
2006,07,19,12,32,15.30
2006,07,19,12,33,15.40
2006,07,19,12,34,15.40
2006,07,19,12,35,15.30
2006,07,19,12,36,15.40
2006,07,19,12,37,15.40
2006,07,19,12,38,15.40
2006,07,19,12,39,15.50
2006,07,19,12,40,15.50
2006,07,19,12,41,15.50
2006,07,19,12,42,15.50
2006,07,19,12,43,15.50
2006,07,19,12,44,15.60
2006,07,19,12,45,15.70
2006,07,19,12,46,15.70
2006,07,19,12,47,15.70
2006,07,19,12,48,15.70
2006,07,19,12,49,15.80
2006,07,19,12,50,15.80
2006,07,19,12,51,15.80
2006,07,19,12,52,15.80
2006,07,19,12,53,15.80
2006,07,19,12,54,15.90
2006,07,19,12,55,15.90
2006,07,19,12,56,15.90
2006,07,19,12,57,15.90
2006,07,19,12,58,16.00
2006,07,19,12,59,16.10
2006,07,19,13,00,16.20
2006,07,19,13,01,16.20
2006,07,19,13,02,16.10
2006,07,19,13,03,16.10
2006,07,19,13,04,15.90
2006,07,19,13,05,15.80
2006,07,19,13,06,15.80
2006,07,19,13,07,15.70
2006,07,19,13,08,15.80
2006,07,19,13,09,15.80
2006,07,19,13,10,15.90
2006,07,19,13,11,16.10
2006,07,19,13,12,16.10
2006,07,19,13,13,16.20
2006,07,19,13,14,16.20
2006,07,19,13,15,16.40
2006,07,19,13,16,16.40
2006,07,19,13,17,16.40
2006,07,19,13,18,16.40
2006,07,19,13,19,16.50
2006,07,19,13,20,16.60
2006,07,19,13,21,16.60
2006,07,19,13,22,16.60
2006,07,19,13,23,16.60
2006,07,19,13,24,16.60
2006,07,19,13,25,16.60
2006,07,19,13,26,16.40
2006,07,19,13,27,16.40
2006,07,19,13,28,16.50
2006,07,19,13,29,16.60
2006,07,19,13,30,16.60
2006,07,19,13,31,16.60
2006,07,19,13,32,16.70
2006,07,19,13,33,16.70
2006,07,19,13,34,16.70
2006,07,19,13,35,16.70
2006,07,19,13,36,16.70
2006,07,19,13,37,16.80
2006,07,19,13,38,16.80
2006,07,19,13,39,16.70
2006,07,19,13,40,16.70
2006,07,19,13,41,16.70
2006,07,19,13,42,16.70
2006,07,19,13,43,16.80
2006,07,19,13,44,16.80
2006,07,19,13,45,16.70
2006,07,19,13,46,16.70
2006,07,19,13,47,16.70
2006,07,19,13,48,16.80
2006,07,19,13,49,16.90
2006,07,19,13,50,16.90
2006,07,19,13,51,16.90
2006,07,19,13,52,17.00
2006,07,19,13,53,17.10
2006,07,19,13,54,17.20
2006,07,19,13,55,17.30
2006,07,19,13,56,17.30
2006,07,19,13,57,17.30
2006,07,19,13,58,17.30
2006,07,19,13,59,17.30
2006,07,19,14,00,17.30
2006,07,19,14,01,17.40
2006,07,19,14,02,17.40
2006,07,19,14,03,17.50
2006,07,19,14,04,17.60
2006,07,19,14,05,17.60
2006,07,19,14,06,17.60
2006,07,19,14,07,17.60
2006,07,19,14,08,17.60
2006,07,19,14,09,17.60
2006,07,19,14,10,17.70
2006,07,19,14,11,17.80
2006,07,19,14,12,17.70
2006,07,19,14,13,17.60
2006,07,19,14,14,17.60
2006,07,19,14,15,17.60
2006,07,19,14,16,17.60
2006,07,19,14,17,17.70
2006,07,19,14,18,17.60
2006,07,19,14,19,17.50
2006,07,19,14,20,17.40
2006,07,19,14,21,17.30
2006,07,19,14,22,17.30
2006,07,19,14,23,17.30
2006,07,19,14,24,17.30
2006,07,19,14,25,17.30
2006,07,19,14,26,17.20
2006,07,19,14,27,17.10
2006,07,19,14,28,17.00
2006,07,19,14,29,17.00
2006,07,19,14,30,16.90
2006,07,19,14,31,16.90
2006,07,19,14,32,16.90
2006,07,19,14,33,16.90
2006,07,19,14,34,17.00
2006,07,19,14,35,16.90
2006,07,19,14,36,16.90
2006,07,19,14,37,17.00
2006,07,19,14,38,17.00
2006,07,19,14,39,17.10
2006,07,19,14,40,17.30
2006,07,19,14,41,17.40
2006,07,19,14,42,17.60
2006,07,19,14,43,17.80
2006,07,19,14,44,17.80
2006,07,19,14,45,17.90
2006,07,19,14,46,17.90
2006,07,19,14,47,17.80
2006,07,19,14,48,17.70
2006,07,19,14,49,17.60
2006,07,19,14,50,17.70
2006,07,19,14,51,17.70
2006,07,19,14,52,17.70
2006,07,19,14,53,17.80
2006,07,19,14,54,17.80
2006,07,19,14,55,17.80
2006,07,19,14,56,17.80
2006,07,19,14,57,17.90
2006,07,19,14,58,17.90
2006,07,19,14,59,18.10
2006,07,19,15,00,18.30
2006,07,19,15,01,18.40
2006,07,19,15,02,18.50
2006,07,19,15,03,18.70
2006,07,19,15,04,18.70
2006,07,19,15,05,18.60
2006,07,19,15,06,18.50
2006,07,19,15,07,18.50
2006,07,19,15,08,18.40
2006,07,19,15,09,18.40
2006,07,19,15,10,18.50
2006,07,19,15,11,18.60
2006,07,19,15,12,18.70
2006,07,19,15,13,18.80
2006,07,19,15,14,18.70
2006,07,19,15,15,18.70
2006,07,19,15,16,18.70
2006,07,19,15,17,18.80
2006,07,19,15,18,18.80
2006,07,19,15,19,18.70
2006,07,19,15,20,18.90
2006,07,19,15,21,18.90
2006,07,19,15,22,18.90
2006,07,19,15,23,19.00
2006,07,19,15,24,19.10
2006,07,19,15,25,19.10
2006,07,19,15,26,19.10
2006,07,19,15,27,19.20
2006,07,19,15,28,19.10
2006,07,19,15,29,19.00
2006,07,19,15,30,18.90
2006,07,19,15,31,18.90
2006,07,19,15,32,18.90
2006,07,19,15,33,18.90
2006,07,19,15,34,18.90
2006,07,19,15,35,19.00
2006,07,19,15,36,19.10
2006,07,19,15,37,19.10
2006,07,19,15,38,19.10
2006,07,19,15,39,19.20
2006,07,19,15,40,19.40
2006,07,19,15,41,19.60
2006,07,19,15,42,19.70
2006,07,19,15,43,19.80
2006,07,19,15,44,19.70
2006,07,19,15,45,19.60
2006,07,19,15,46,19.60
2006,07,19,15,47,19.50
2006,07,19,15,48,19.30
2006,07,19,15,49,19.30
2006,07,19,15,50,19.20
2006,07,19,15,51,19.20
2006,07,19,15,52,19.30
2006,07,19,15,53,19.30
2006,07,19,15,54,19.30
2006,07,19,15,55,19.30
2006,07,19,15,56,19.40
2006,07,19,15,57,19.50
2006,07,19,15,58,19.60
2006,07,19,15,59,19.60
2006,07,19,16,00,19.60
2006,07,19,16,01,19.40
2006,07,19,16,02,19.30
2006,07,19,16,03,19.20
2006,07,19,16,04,19.20
2006,07,19,16,05,19.20
2006,07,19,16,06,19.10
2006,07,19,16,07,19.20
2006,07,19,16,08,19.20
2006,07,19,16,09,19.20
2006,07,19,16,10,19.20
2006,07,19,16,11,19.30
2006,07,19,16,12,19.40
2006,07,19,16,13,19.40
2006,07,19,16,14,19.50
2006,07,19,16,15,19.50
2006,07,19,16,16,19.50
2006,07,19,16,17,19.50
2006,07,19,16,18,19.60
2006,07,19,16,19,19.70
2006,07,19,16,20,19.70
2006,07,19,16,21,19.70
2006,07,19,16,22,19.70
2006,07,19,16,23,19.70
2006,07,19,16,24,19.90
2006,07,19,16,25,19.90
2006,07,19,16,26,19.90
2006,07,19,16,27,19.90
2006,07,19,16,28,19.90
2006,07,19,16,29,20.00
2006,07,19,16,30,19.90
2006,07,19,16,31,19.90
2006,07,19,16,32,19.90
2006,07,19,16,33,19.90
2006,07,19,16,34,19.90
2006,07,19,16,35,19.90
2006,07,19,16,36,19.90
2006,07,19,16,37,19.90
2006,07,19,16,38,19.80
2006,07,19,16,39,19.70
2006,07,19,16,40,19.60
2006,07,19,16,41,19.50
2006,07,19,16,42,19.40
2006,07,19,16,43,19.40
2006,07,19,16,44,19.40
2006,07,19,16,45,19.40
2006,07,19,16,46,19.50
2006,07,19,16,47,19.50
2006,07,19,16,48,19.60
2006,07,19,16,49,19.70
2006,07,19,16,50,19.70
2006,07,19,16,51,19.60
2006,07,19,16,52,19.60
2006,07,19,16,53,19.50
2006,07,19,16,54,19.40
2006,07,19,16,55,19.40
2006,07,19,16,56,19.30
2006,07,19,16,57,19.30
2006,07,19,16,58,19.30
2006,07,19,16,59,19.30
2006,07,19,17,00,19.30
2006,07,19,17,01,19.30
2006,07,19,17,02,19.30
2006,07,19,17,03,19.30
2006,07,19,17,04,19.40
2006,07,19,17,05,19.40
2006,07,19,17,06,19.40
2006,07,19,17,07,19.40
2006,07,19,17,08,19.40
2006,07,19,17,09,19.50
2006,07,19,17,10,19.70
2006,07,19,17,11,19.70
2006,07,19,17,12,19.60
2006,07,19,17,13,19.50
2006,07,19,17,14,19.60
2006,07,19,17,15,19.60
2006,07,19,17,16,19.70
2006,07,19,17,17,19.70
2006,07,19,17,18,19.70
2006,07,19,17,19,19.70